contact:dominique.lefevre@mio.osupytheas.fr, maurice.libes@osupytheas.fr, didier.mallarino@osupytheas.fr
Project:EMSO http://www.emso-fr.org/EMSO-France
Depth: 2436.0 m
Title:EMSO Ligure Ouest : Data MII capteur CSTAR
DateTime,Latitude,Longitude,Instrument_Serial,Reference_Counts,Signal_Counts,Corrected_Signal_raw_counts,Calculated_Beam_c_inverse_meters,Internal_thermistor_counts
DateTime,Latitude,Longitude,Instrument_Serial,Reference_Counts,Signal_Counts,Corrected_Signal_raw_counts,Calculated_Beam_c_inverse_meters,Internal_thermistor_counts
2023-03-30T00:00:53,42.805,6.029,CST-1368DR,4338,4656,11398,01.259,551
2023-03-30T00:03:55,42.805,6.029,CST-1368DR,4338,4641,11363,01.272,551
2023-03-30T00:06:56,42.805,6.029,CST-1368DR,4338,4651,11386,01.264,551
2023-03-30T00:09:58,42.805,6.029,CST-1368DR,4338,4644,11370,01.269,551
2023-03-30T00:12:59,42.805,6.029,CST-1368DR,4338,4653,11391,01.262,551
2023-03-30T00:16:01,42.805,6.029,CST-1368DR,4338,4654,11394,01.261,551
2023-03-30T00:19:03,42.805,6.029,CST-1368DR,4338,4639,11357,01.274,551
2023-03-30T00:22:04,42.805,6.029,CST-1368DR,4338,4647,11377,01.267,551
2023-03-30T00:25:06,42.805,6.029,CST-1368DR,4338,4652,11389,01.263,551
2023-03-30T00:28:07,42.805,6.029,CST-1368DR,4338,4643,11367,01.270,551
2023-03-30T00:31:09,42.805,6.029,CST-1368DR,4338,4655,11397,01.260,551
2023-03-30T00:34:10,42.805,6.029,CST-1368DR,4338,4648,11380,01.266,551
2023-03-30T00:37:12,42.805,6.029,CST-1368DR,4338,4658,11403,01.258,551
2023-03-30T00:40:14,42.805,6.029,CST-1368DR,4338,4651,11388,01.263,551
2023-03-30T00:43:15,42.805,6.029,CST-1368DR,4338,4653,11391,01.262,551
2023-03-30T00:46:17,42.805,6.029,CST-1368DR,4338,4646,11374,01.268,551
2023-03-30T00:49:18,42.805,6.029,CST-1368DR,4338,4643,11367,01.270,551
2023-03-30T00:52:20,42.805,6.029,CST-1368DR,4338,4640,11359,01.273,551
2023-03-30T00:55:21,42.805,6.029,CST-1368DR,4338,4655,11397,01.260,551
2023-03-30T00:58:23,42.805,6.029,CST-1368DR,4338,4644,11369,01.270,551
2023-03-30T01:01:25,42.805,6.029,CST-1368DR,4338,4649,11382,01.265,551
2023-03-30T01:04:26,42.805,6.029,CST-1368DR,4338,4648,11380,01.266,551
2023-03-30T01:07:28,42.805,6.029,CST-1368DR,4338,4652,11389,01.263,551
2023-03-30T01:10:29,42.805,6.029,CST-1368DR,4338,4646,11375,01.268,551
2023-03-30T01:13:31,42.805,6.029,CST-1368DR,4338,4651,11386,01.264,551
2023-03-30T01:16:33,42.805,6.029,CST-1368DR,4338,4655,11397,01.260,551
2023-03-30T01:19:34,42.805,6.029,CST-1368DR,4338,4648,11378,01.266,551
2023-03-30T01:22:36,42.805,6.029,CST-1368DR,4338,4658,11404,01.257,551
2023-03-30T01:25:37,42.805,6.029,CST-1368DR,4338,4660,11408,01.256,551
2023-03-30T01:28:39,42.805,6.029,CST-1368DR,4338,4649,11382,01.265,551
2023-03-30T01:31:40,42.805,6.029,CST-1368DR,4338,4653,11392,01.262,551
2023-03-30T01:34:42,42.805,6.029,CST-1368DR,4338,4648,11380,01.266,551
2023-03-30T01:37:44,42.805,6.029,CST-1368DR,4338,4649,11381,01.265,551
2023-03-30T01:40:45,42.805,6.029,CST-1368DR,4338,4656,11399,01.259,551
2023-03-30T01:43:47,42.805,6.029,CST-1368DR,4338,4652,11390,01.262,551
2023-03-30T01:46:48,42.805,6.029,CST-1368DR,4338,4660,11409,01.256,551
2023-03-30T01:49:50,42.805,6.029,CST-1368DR,4338,4656,11398,01.259,551
2023-03-30T01:52:52,42.805,6.029,CST-1368DR,4338,4646,11374,01.268,551
2023-03-30T01:55:53,42.805,6.029,CST-1368DR,4338,4656,11398,01.259,551
2023-03-30T01:58:55,42.805,6.029,CST-1368DR,4338,4655,11396,01.260,551
2023-03-30T02:01:56,42.805,6.029,CST-1368DR,4338,4663,11416,01.253,551
2023-03-30T02:04:58,42.805,6.029,CST-1368DR,4338,4648,11380,01.266,551
2023-03-30T02:07:59,42.805,6.029,CST-1368DR,4338,4650,11385,01.264,551
2023-03-30T02:11:01,42.805,6.029,CST-1368DR,4338,4663,11416,01.253,551
2023-03-30T02:14:03,42.805,6.029,CST-1368DR,4338,4653,11391,01.262,551
2023-03-30T02:17:04,42.805,6.029,CST-1368DR,4338,4652,11388,01.263,551
2023-03-30T02:20:06,42.805,6.029,CST-1368DR,4338,4667,11426,01.250,551
2023-03-30T02:23:07,42.805,6.029,CST-1368DR,4338,4659,11406,01.257,551
2023-03-30T02:26:09,42.805,6.029,CST-1368DR,4338,4651,11387,01.263,551
2023-03-30T02:29:10,42.805,6.029,CST-1368DR,4338,4648,11379,01.266,551
2023-03-30T02:32:12,42.805,6.029,CST-1368DR,4338,4659,11407,01.256,551
2023-03-30T02:35:14,42.805,6.029,CST-1368DR,4338,4653,11392,01.262,551
2023-03-30T02:38:15,42.805,6.029,CST-1368DR,4338,4648,11379,01.266,551
2023-03-30T02:41:17,42.805,6.029,CST-1368DR,4338,4648,11379,01.266,551
2023-03-30T02:44:18,42.805,6.029,CST-1368DR,4338,4653,11392,01.262,551
2023-03-30T02:47:20,42.805,6.029,CST-1368DR,4338,4663,11416,01.253,551
2023-03-30T02:50:22,42.805,6.029,CST-1368DR,4338,4648,11380,01.266,551
2023-03-30T02:53:23,42.805,6.029,CST-1368DR,4338,4650,11385,01.264,551
2023-03-30T02:56:25,42.805,6.029,CST-1368DR,4338,4648,11378,01.266,551
2023-03-30T02:59:26,42.805,6.029,CST-1368DR,4338,4648,11379,01.266,551
2023-03-30T03:02:28,42.805,6.029,CST-1368DR,4338,4653,11392,01.262,551
2023-03-30T03:05:29,42.805,6.029,CST-1368DR,4338,4648,11380,01.266,551
2023-03-30T03:08:31,42.805,6.029,CST-1368DR,4337,4642,11368,01.270,551
2023-03-30T03:11:33,42.805,6.029,CST-1368DR,4338,4660,11408,01.256,551
2023-03-30T03:14:34,42.805,6.029,CST-1368DR,4338,4648,11379,01.266,551
2023-03-30T03:17:36,42.805,6.029,CST-1368DR,4337,4646,11377,01.267,551
2023-03-30T03:20:37,42.805,6.029,CST-1368DR,4338,4649,11381,01.265,551
2023-03-30T03:23:39,42.805,6.029,CST-1368DR,4338,4658,11403,01.258,551
2023-03-30T03:26:40,42.805,6.029,CST-1368DR,4338,4653,11391,01.262,551
2023-03-30T03:29:42,42.805,6.029,CST-1368DR,4338,4654,11395,01.260,551
2023-03-30T03:32:44,42.805,6.029,CST-1368DR,4338,4656,11399,01.259,551
2023-03-30T03:35:45,42.805,6.029,CST-1368DR,4338,4647,11378,01.266,551
2023-03-30T03:38:47,42.805,6.029,CST-1368DR,4338,4656,11399,01.259,551
2023-03-30T03:41:48,42.805,6.029,CST-1368DR,4338,4666,11424,01.250,551
2023-03-30T03:44:50,42.805,6.029,CST-1368DR,4338,4654,11394,01.261,551
2023-03-30T03:47:52,42.805,6.029,CST-1368DR,4338,4653,11392,01.262,551
2023-03-30T03:50:53,42.805,6.029,CST-1368DR,4337,4650,11386,01.264,551
2023-03-30T03:53:55,42.805,6.029,CST-1368DR,4337,4655,11400,01.259,551
2023-03-30T03:56:56,42.805,6.029,CST-1368DR,4338,4657,11402,01.258,551
2023-03-30T03:59:58,42.805,6.029,CST-1368DR,4337,4648,11382,01.265,551
2023-03-30T04:02:59,42.805,6.029,CST-1368DR,4338,4655,11397,01.260,551
2023-03-30T04:06:01,42.805,6.029,CST-1368DR,4338,4659,11405,01.257,551
2023-03-30T04:09:03,42.805,6.029,CST-1368DR,4338,4661,11410,01.255,551
2023-03-30T04:12:04,42.805,6.029,CST-1368DR,4338,4659,11405,01.257,551
2023-03-30T04:15:06,42.805,6.029,CST-1368DR,4338,4661,11411,01.255,551
2023-03-30T04:18:07,42.805,6.029,CST-1368DR,4338,4663,11416,01.253,551
2023-03-30T04:21:09,42.805,6.029,CST-1368DR,4338,4650,11383,01.265,551
2023-03-30T04:24:11,42.805,6.029,CST-1368DR,4338,4667,11427,01.249,551
2023-03-30T04:27:12,42.805,6.029,CST-1368DR,4338,4646,11375,01.268,551
2023-03-30T04:30:14,42.805,6.029,CST-1368DR,4338,4656,11399,01.259,551
2023-03-30T04:33:15,42.805,6.029,CST-1368DR,4338,4655,11396,01.260,551
2023-03-30T04:36:17,42.805,6.029,CST-1368DR,4338,4662,11414,01.254,551
2023-03-30T04:39:18,42.805,6.029,CST-1368DR,4337,4655,11400,01.259,551
2023-03-30T04:42:20,42.805,6.029,CST-1368DR,4338,4662,11413,01.254,551
2023-03-30T04:45:22,42.805,6.029,CST-1368DR,4337,4648,11382,01.265,551
2023-03-30T04:48:23,42.805,6.029,CST-1368DR,4338,4652,11389,01.263,551
2023-03-30T04:51:25,42.805,6.029,CST-1368DR,4337,4652,11391,01.262,551
2023-03-30T04:54:26,42.805,6.029,CST-1368DR,4337,4652,11392,01.262,551
2023-03-30T04:57:28,42.805,6.029,CST-1368DR,4338,4661,11411,01.255,551
2023-03-30T05:00:29,42.805,6.029,CST-1368DR,4338,4651,11387,01.263,551
2023-03-30T05:03:31,42.805,6.029,CST-1368DR,4338,4660,11408,01.256,551
2023-03-30T05:06:33,42.805,6.029,CST-1368DR,4338,4661,11411,01.255,551
2023-03-30T05:09:34,42.805,6.029,CST-1368DR,4338,4657,11402,01.258,551
2023-03-30T05:12:36,42.805,6.029,CST-1368DR,4338,4667,11425,01.250,551
2023-03-30T05:15:37,42.805,6.029,CST-1368DR,4338,4656,11400,01.259,551
2023-03-30T05:18:39,42.805,6.029,CST-1368DR,4337,4649,11384,01.264,551
2023-03-30T05:21:40,42.805,6.029,CST-1368DR,4337,4652,11391,01.262,551
2023-03-30T05:24:42,42.805,6.029,CST-1368DR,4337,4650,11388,01.263,551
2023-03-30T05:27:44,42.805,6.029,CST-1368DR,4337,4648,11382,01.265,551
2023-03-30T05:30:45,42.805,6.029,CST-1368DR,4338,4673,11441,01.244,551
2023-03-30T05:33:47,42.805,6.029,CST-1368DR,4338,4655,11397,01.260,551
2023-03-30T05:36:48,42.805,6.029,CST-1368DR,4337,4651,11388,01.263,551
2023-03-30T05:39:50,42.805,6.029,CST-1368DR,4337,4665,11423,01.251,551
2023-03-30T05:42:52,42.805,6.029,CST-1368DR,4338,4666,11422,01.251,551
2023-03-30T05:45:53,42.805,6.029,CST-1368DR,4338,4664,11419,01.252,551
2023-03-30T05:48:55,42.805,6.029,CST-1368DR,4338,4676,11448,01.242,551
2023-03-30T05:51:56,42.805,6.029,CST-1368DR,4337,4649,11383,01.265,551
2023-03-30T05:54:58,42.805,6.029,CST-1368DR,4337,4652,11393,01.261,551
2023-03-30T05:57:59,42.805,6.029,CST-1368DR,4337,4652,11391,01.262,551
2023-03-30T06:01:01,42.805,6.029,CST-1368DR,4337,4655,11399,01.259,551
2023-03-30T06:04:03,42.805,6.029,CST-1368DR,4337,4638,11358,01.273,551
2023-03-30T06:07:04,42.805,6.029,CST-1368DR,4337,4658,11407,01.256,551
2023-03-30T06:10:06,42.805,6.029,CST-1368DR,4337,4652,11392,01.262,551
2023-03-30T06:13:07,42.805,6.029,CST-1368DR,4337,4662,11416,01.253,551
2023-03-30T06:16:09,42.805,6.029,CST-1368DR,4337,4656,11402,01.258,551
2023-03-30T06:19:10,42.805,6.029,CST-1368DR,4337,4649,11383,01.265,551
2023-03-30T06:22:12,42.805,6.029,CST-1368DR,4337,4660,11412,01.255,551
2023-03-30T06:25:14,42.805,6.029,CST-1368DR,4338,4672,11438,01.245,551
2023-03-30T06:28:15,42.805,6.029,CST-1368DR,4337,4655,11399,01.259,551
2023-03-30T06:31:17,42.805,6.029,CST-1368DR,4338,4672,11438,01.245,551
2023-03-30T06:34:18,42.805,6.029,CST-1368DR,4337,4653,11395,01.260,551
2023-03-30T06:37:20,42.805,6.029,CST-1368DR,4338,4664,11419,01.252,551
2023-03-30T06:40:22,42.805,6.029,CST-1368DR,4338,4655,11397,01.260,551
2023-03-30T06:43:23,42.805,6.029,CST-1368DR,4337,4648,11383,01.265,551
2023-03-30T06:46:25,42.805,6.029,CST-1368DR,4337,4656,11402,01.258,551
2023-03-30T06:49:26,42.805,6.029,CST-1368DR,4338,4671,11437,01.246,551
2023-03-30T06:52:28,42.805,6.029,CST-1368DR,4337,4643,11370,01.269,551
2023-03-30T06:55:29,42.805,6.029,CST-1368DR,4337,4646,11376,01.267,551
2023-03-30T06:58:31,42.805,6.029,CST-1368DR,4338,4658,11403,01.258,551
2023-03-30T07:01:33,42.805,6.029,CST-1368DR,4338,4670,11433,01.247,551
2023-03-30T07:04:34,42.805,6.029,CST-1368DR,4338,4670,11432,01.248,551
2023-03-30T07:07:36,42.805,6.029,CST-1368DR,4338,4664,11419,01.252,551
2023-03-30T07:10:37,42.805,6.029,CST-1368DR,4338,4666,11424,01.250,551
2023-03-30T07:13:39,42.805,6.029,CST-1368DR,4337,4649,11385,01.264,551
2023-03-30T07:16:40,42.805,6.029,CST-1368DR,4337,4656,11400,01.259,551
2023-03-30T07:19:42,42.805,6.029,CST-1368DR,4338,4661,11410,01.255,551
2023-03-30T07:22:44,42.805,6.029,CST-1368DR,4338,4670,11433,01.247,551
2023-03-30T07:25:45,42.805,6.029,CST-1368DR,4338,4667,11427,01.249,551
2023-03-30T07:28:47,42.805,6.029,CST-1368DR,4337,4668,11430,01.248,551
2023-03-30T07:31:48,42.805,6.029,CST-1368DR,4338,4680,11458,01.238,551
2023-03-30T07:34:50,42.805,6.029,CST-1368DR,4338,4669,11430,01.248,551
2023-03-30T07:37:52,42.805,6.029,CST-1368DR,4337,4655,11400,01.259,551
2023-03-30T07:40:53,42.805,6.029,CST-1368DR,4337,4667,11429,01.249,551
2023-03-30T07:43:55,42.805,6.029,CST-1368DR,4337,4655,11398,01.259,551
2023-03-30T07:46:56,42.805,6.029,CST-1368DR,4337,4671,11438,01.245,551
2023-03-30T07:49:58,42.805,6.029,CST-1368DR,4338,4675,11446,01.243,551
2023-03-30T07:52:59,42.805,6.029,CST-1368DR,4337,4660,11412,01.255,551
2023-03-30T07:56:01,42.805,6.029,CST-1368DR,4337,4667,11427,01.249,551
2023-03-30T07:59:03,42.805,6.029,CST-1368DR,4337,4665,11424,01.250,551
2023-03-30T08:02:04,42.805,6.029,CST-1368DR,4338,4679,11454,01.240,551
2023-03-30T08:05:06,42.805,6.029,CST-1368DR,4338,4682,11463,01.237,551
2023-03-30T08:08:07,42.805,6.029,CST-1368DR,4337,4658,11407,01.256,551
2023-03-30T08:11:09,42.805,6.029,CST-1368DR,4337,4657,11403,01.258,551
2023-03-30T08:14:10,42.805,6.029,CST-1368DR,4338,4686,11473,01.233,551
2023-03-30T08:17:12,42.805,6.029,CST-1368DR,4338,4667,11426,01.250,551
2023-03-30T08:20:14,42.805,6.029,CST-1368DR,4337,4669,11434,01.247,551
2023-03-30T08:23:15,42.805,6.029,CST-1368DR,4337,4661,11413,01.254,551
2023-03-30T08:26:17,42.805,6.029,CST-1368DR,4338,4680,11458,01.238,551
2023-03-30T08:29:18,42.805,6.029,CST-1368DR,4337,4659,11410,01.255,551
2023-03-30T08:32:21,42.805,6.029,CST-1368DR,4337,4659,11410,01.255,551
2023-03-30T08:35:23,42.805,6.029,CST-1368DR,4338,4677,11451,01.241,551
2023-03-30T08:38:24,42.805,6.029,CST-1368DR,4337,4672,11441,01.244,551
2023-03-30T08:41:26,42.805,6.029,CST-1368DR,4338,4680,11457,01.239,551
2023-03-30T08:44:28,42.805,6.029,CST-1368DR,4338,4683,11464,01.236,551
2023-03-30T08:47:29,42.805,6.029,CST-1368DR,4337,4665,11424,01.250,551
2023-03-30T08:50:31,42.805,6.029,CST-1368DR,4337,4659,11408,01.256,551
2023-03-30T08:53:32,42.805,6.029,CST-1368DR,4338,4683,11466,01.236,551
2023-03-30T08:56:34,42.805,6.029,CST-1368DR,4337,4674,11445,01.243,551
2023-03-30T08:59:36,42.805,6.029,CST-1368DR,4337,4676,11449,01.242,551
2023-03-30T09:02:37,42.805,6.029,CST-1368DR,4337,4675,11447,01.242,551
2023-03-30T09:05:39,42.805,6.029,CST-1368DR,4337,4684,11469,01.235,551
2023-03-30T09:08:40,42.805,6.029,CST-1368DR,4337,4658,11406,01.257,551
2023-03-30T09:11:42,42.805,6.029,CST-1368DR,4337,4685,11471,01.234,551
2023-03-30T09:14:43,42.805,6.029,CST-1368DR,4338,4681,11461,01.237,552
2023-03-30T09:17:45,42.805,6.029,CST-1368DR,4338,4680,11458,01.238,551
2023-03-30T09:20:47,42.805,6.029,CST-1368DR,4337,4681,11464,01.236,551
2023-03-30T09:23:48,42.805,6.029,CST-1368DR,4338,4683,11466,01.236,551
2023-03-30T09:26:50,42.805,6.029,CST-1368DR,4338,4683,11466,01.236,551
2023-03-30T09:29:51,42.805,6.029,CST-1368DR,4337,4660,11411,01.255,551
2023-03-30T09:32:53,42.805,6.029,CST-1368DR,4337,4679,11457,01.239,551
2023-03-30T09:35:55,42.805,6.029,CST-1368DR,4338,4684,11468,01.235,551
2023-03-30T09:38:56,42.805,6.029,CST-1368DR,4337,4674,11446,01.243,551
2023-03-30T09:41:58,42.805,6.029,CST-1368DR,4337,4668,11431,01.248,551
2023-03-30T09:44:59,42.805,6.029,CST-1368DR,4337,4671,11438,01.245,552
2023-03-30T09:48:01,42.805,6.029,CST-1368DR,4337,4670,11435,01.246,551
2023-03-30T09:51:02,42.805,6.029,CST-1368DR,4337,4671,11438,01.245,551
2023-03-30T09:54:04,42.805,6.029,CST-1368DR,4337,4680,11461,01.237,551
2023-03-30T09:57:06,42.805,6.029,CST-1368DR,4338,4677,11449,01.242,551
2023-03-30T10:00:07,42.805,6.029,CST-1368DR,4337,4672,11440,01.245,551
2023-03-30T10:03:09,42.805,6.029,CST-1368DR,4337,4672,11440,01.245,551
2023-03-30T10:06:10,42.805,6.029,CST-1368DR,4337,4674,11446,01.243,551
2023-03-30T10:09:12,42.805,6.029,CST-1368DR,4337,4691,11488,01.228,551
2023-03-30T10:12:13,42.805,6.029,CST-1368DR,4337,4675,11448,01.242,551
2023-03-30T10:15:15,42.805,6.029,CST-1368DR,4337,4677,11452,01.241,551
2023-03-30T10:18:17,42.805,6.029,CST-1368DR,4337,4663,11419,01.252,551
2023-03-30T10:21:18,42.805,6.029,CST-1368DR,4337,4660,11411,01.255,551
2023-03-30T10:24:20,42.805,6.029,CST-1368DR,4337,4663,11419,01.252,551
2023-03-30T10:27:21,42.805,6.029,CST-1368DR,4337,4667,11429,01.249,551
2023-03-30T10:30:24,42.805,6.029,CST-1368DR,4337,4670,11435,01.246,551
2023-03-30T10:33:26,42.805,6.029,CST-1368DR,4337,4671,11438,01.245,551
2023-03-30T10:36:27,42.805,6.029,CST-1368DR,4337,4668,11430,01.248,551
2023-03-30T10:39:29,42.805,6.029,CST-1368DR,4337,4680,11459,01.238,551
2023-03-30T10:42:30,42.805,6.029,CST-1368DR,4337,4676,11451,01.241,551
2023-03-30T10:45:32,42.805,6.029,CST-1368DR,4337,4665,11424,01.250,551
2023-03-30T10:48:33,42.805,6.029,CST-1368DR,4337,4679,11458,01.238,551
2023-03-30T10:51:35,42.805,6.029,CST-1368DR,4337,4675,11449,01.242,551
2023-03-30T10:54:37,42.805,6.029,CST-1368DR,4337,4676,11449,01.242,551
2023-03-30T10:57:38,42.805,6.029,CST-1368DR,4337,4680,11459,01.238,551
2023-03-30T11:00:40,42.805,6.029,CST-1368DR,4337,4668,11430,01.248,551
2023-03-30T11:03:41,42.805,6.029,CST-1368DR,4337,4672,11440,01.245,551
2023-03-30T11:06:43,42.805,6.029,CST-1368DR,4337,4677,11452,01.241,551
2023-03-30T11:09:44,42.805,6.029,CST-1368DR,4337,4685,11472,01.234,551
2023-03-30T11:12:46,42.805,6.029,CST-1368DR,4337,4664,11422,01.251,551
2023-03-30T11:15:48,42.805,6.029,CST-1368DR,4337,4675,11447,01.242,551
2023-03-30T11:18:49,42.805,6.029,CST-1368DR,4337,4668,11430,01.248,551
2023-03-30T11:21:51,42.805,6.029,CST-1368DR,4337,4675,11449,01.242,551
2023-03-30T11:24:52,42.805,6.029,CST-1368DR,4337,4676,11449,01.242,551
2023-03-30T11:27:54,42.805,6.029,CST-1368DR,4337,4670,11435,01.246,551
2023-03-30T11:30:56,42.805,6.029,CST-1368DR,4337,4683,11467,01.235,551
2023-03-30T11:33:57,42.805,6.029,CST-1368DR,4337,4683,11467,01.235,551
2023-03-30T11:36:59,42.805,6.029,CST-1368DR,4337,4677,11452,01.241,551
2023-03-30T11:40:00,42.805,6.029,CST-1368DR,4337,4668,11431,01.248,551
2023-03-30T11:43:02,42.805,6.029,CST-1368DR,4337,4682,11465,01.236,551
2023-03-30T11:46:03,42.805,6.029,CST-1368DR,4337,4678,11454,01.240,551
2023-03-30T11:49:05,42.805,6.029,CST-1368DR,4337,4673,11443,01.244,551
2023-03-30T11:52:07,42.805,6.029,CST-1368DR,4337,4677,11453,01.240,551
2023-03-30T11:55:08,42.805,6.029,CST-1368DR,4337,4679,11459,01.238,551
2023-03-30T11:58:10,42.805,6.029,CST-1368DR,4337,4679,11457,01.239,551
2023-03-30T12:01:11,42.805,6.029,CST-1368DR,4337,4678,11454,01.240,551
2023-03-30T12:04:13,42.805,6.029,CST-1368DR,4337,4681,11464,01.236,551
2023-03-30T12:07:14,42.805,6.029,CST-1368DR,4337,4680,11460,01.238,551
2023-03-30T12:10:16,42.805,6.029,CST-1368DR,4337,4673,11444,01.243,551
2023-03-30T12:13:18,42.805,6.029,CST-1368DR,4337,4682,11465,01.236,551
2023-03-30T12:16:19,42.805,6.029,CST-1368DR,4337,4677,11453,01.240,551
2023-03-30T12:19:21,42.805,6.029,CST-1368DR,4337,4678,11456,01.239,551
2023-03-30T12:22:22,42.805,6.029,CST-1368DR,4337,4676,11450,01.241,551
2023-03-30T12:25:24,42.805,6.029,CST-1368DR,4337,4674,11446,01.243,551
2023-03-30T12:28:26,42.805,6.029,CST-1368DR,4337,4673,11442,01.244,551
2023-03-30T12:31:27,42.805,6.029,CST-1368DR,4337,4675,11448,01.242,551
2023-03-30T12:34:29,42.805,6.029,CST-1368DR,4337,4678,11456,01.239,551
2023-03-30T12:37:30,42.805,6.029,CST-1368DR,4337,4674,11445,01.243,551
2023-03-30T12:40:32,42.805,6.029,CST-1368DR,4337,4679,11459,01.238,551
2023-03-30T12:43:33,42.805,6.029,CST-1368DR,4337,4664,11422,01.251,551
2023-03-30T12:46:35,42.805,6.029,CST-1368DR,4337,4683,11468,01.235,551
2023-03-30T12:49:37,42.805,6.029,CST-1368DR,4337,4680,11460,01.238,551
2023-03-30T12:52:38,42.805,6.029,CST-1368DR,4337,4682,11465,01.236,551
2023-03-30T12:55:40,42.805,6.029,CST-1368DR,4337,4681,11463,01.237,551
2023-03-30T12:58:41,42.805,6.029,CST-1368DR,4337,4677,11452,01.241,551
2023-03-30T13:01:43,42.805,6.029,CST-1368DR,4337,4681,11464,01.236,551
2023-03-30T13:04:44,42.805,6.029,CST-1368DR,4337,4680,11460,01.238,551
2023-03-30T13:07:46,42.805,6.029,CST-1368DR,4337,4681,11464,01.236,551
2023-03-30T13:10:48,42.805,6.029,CST-1368DR,4337,4679,11457,01.239,551
2023-03-30T13:13:49,42.805,6.029,CST-1368DR,4337,4667,11427,01.249,551
2023-03-30T13:16:51,42.805,6.029,CST-1368DR,4337,4678,11454,01.240,551
2023-03-30T13:19:52,42.805,6.029,CST-1368DR,4337,4681,11463,01.237,552
2023-03-30T13:22:54,42.805,6.029,CST-1368DR,4337,4680,11459,01.238,551
2023-03-30T13:25:56,42.805,6.029,CST-1368DR,4337,4680,11459,01.238,551
2023-03-30T13:28:57,42.805,6.029,CST-1368DR,4337,4683,11468,01.235,551
2023-03-30T13:31:59,42.805,6.029,CST-1368DR,4337,4687,11476,01.232,551
2023-03-30T13:35:00,42.805,6.029,CST-1368DR,4337,4674,11445,01.243,551
2023-03-30T13:38:02,42.805,6.029,CST-1368DR,4337,4679,11457,01.239,551
2023-03-30T13:41:03,42.805,6.029,CST-1368DR,4337,4686,11474,01.233,551
2023-03-30T13:44:05,42.805,6.029,CST-1368DR,4337,4680,11460,01.238,551
2023-03-30T13:47:07,42.805,6.029,CST-1368DR,4337,4679,11459,01.238,551
2023-03-30T13:50:08,42.805,6.029,CST-1368DR,4337,4681,11464,01.236,551
2023-03-30T13:53:10,42.805,6.029,CST-1368DR,4337,4683,11467,01.235,551
2023-03-30T13:56:11,42.805,6.029,CST-1368DR,4337,4672,11440,01.245,551
2023-03-30T13:59:13,42.805,6.029,CST-1368DR,4337,4679,11458,01.238,551
2023-03-30T14:02:14,42.805,6.029,CST-1368DR,4337,4682,11465,01.236,551
2023-03-30T14:05:16,42.805,6.029,CST-1368DR,4337,4680,11460,01.238,551
2023-03-30T14:08:18,42.805,6.029,CST-1368DR,4337,4681,11462,01.237,551
2023-03-30T14:11:19,42.805,6.029,CST-1368DR,4337,4668,11431,01.248,551
2023-03-30T14:14:21,42.805,6.029,CST-1368DR,4337,4681,11464,01.236,551
2023-03-30T14:17:22,42.805,6.029,CST-1368DR,4337,4679,11459,01.238,551
2023-03-30T14:20:24,42.805,6.029,CST-1368DR,4337,4679,11457,01.239,551
2023-03-30T14:23:25,42.805,6.029,CST-1368DR,4337,4675,11448,01.242,551
2023-03-30T14:26:27,42.805,6.029,CST-1368DR,4337,4681,11463,01.237,551
2023-03-30T14:29:29,42.805,6.029,CST-1368DR,4337,4691,11487,01.228,551
2023-03-30T14:32:33,42.805,6.029,CST-1368DR,4337,4681,11463,01.237,551
2023-03-30T14:35:34,42.805,6.029,CST-1368DR,4337,4682,11465,01.236,551
2023-03-30T14:38:36,42.805,6.029,CST-1368DR,4337,4683,11468,01.235,551
2023-03-30T14:41:38,42.805,6.029,CST-1368DR,4337,4680,11461,01.237,551
2023-03-30T14:44:39,42.805,6.029,CST-1368DR,4337,4680,11461,01.237,552
2023-03-30T14:47:41,42.805,6.029,CST-1368DR,4337,4679,11457,01.239,551
2023-03-30T14:50:42,42.805,6.029,CST-1368DR,4337,4682,11465,01.236,551
2023-03-30T14:53:44,42.805,6.029,CST-1368DR,4337,4678,11456,01.239,551
2023-03-30T14:56:45,42.805,6.029,CST-1368DR,4337,4685,11472,01.234,551
2023-03-30T14:59:47,42.805,6.029,CST-1368DR,4337,4680,11460,01.238,551
2023-03-30T15:02:49,42.805,6.029,CST-1368DR,4337,4682,11465,01.236,551
2023-03-30T15:05:50,42.805,6.029,CST-1368DR,4337,4672,11440,01.245,551
2023-03-30T15:08:52,42.805,6.029,CST-1368DR,4337,4672,11440,01.245,551
2023-03-30T15:11:53,42.805,6.029,CST-1368DR,4337,4683,11467,01.235,551
2023-03-30T15:14:55,42.805,6.029,CST-1368DR,4337,4675,11448,01.242,551
2023-03-30T15:17:57,42.805,6.029,CST-1368DR,4337,4681,11462,01.237,551
2023-03-30T15:20:58,42.805,6.029,CST-1368DR,4337,4676,11450,01.241,551
2023-03-30T15:24:00,42.805,6.029,CST-1368DR,4337,4679,11459,01.238,551
2023-03-30T15:27:01,42.805,6.029,CST-1368DR,4337,4680,11461,01.237,551
2023-03-30T15:30:03,42.805,6.029,CST-1368DR,4337,4684,11469,01.235,551
2023-03-30T15:33:04,42.805,6.029,CST-1368DR,4337,4674,11445,01.243,551
2023-03-30T15:36:06,42.805,6.029,CST-1368DR,4337,4682,11465,01.236,551
2023-03-30T15:39:08,42.805,6.029,CST-1368DR,4337,4681,11463,01.237,551
2023-03-30T15:42:09,42.805,6.029,CST-1368DR,4337,4678,11456,01.239,551
2023-03-30T15:45:11,42.805,6.029,CST-1368DR,4337,4682,11466,01.236,551
2023-03-30T15:48:12,42.805,6.029,CST-1368DR,4337,4678,11456,01.239,551
2023-03-30T15:51:14,42.805,6.029,CST-1368DR,4337,4680,11461,01.237,551
2023-03-30T15:54:15,42.805,6.029,CST-1368DR,4337,4682,11464,01.236,551
2023-03-30T15:57:17,42.805,6.029,CST-1368DR,4337,4681,11463,01.237,551
2023-03-30T16:00:19,42.805,6.029,CST-1368DR,4337,4682,11466,01.236,551
2023-03-30T16:03:20,42.805,6.029,CST-1368DR,4337,4680,11460,01.238,551
2023-03-30T16:06:22,42.805,6.029,CST-1368DR,4337,4677,11452,01.241,551
2023-03-30T16:09:23,42.805,6.029,CST-1368DR,4337,4668,11431,01.248,551
2023-03-30T16:12:25,42.805,6.029,CST-1368DR,4337,4673,11442,01.244,551
2023-03-30T16:15:27,42.805,6.029,CST-1368DR,4337,4676,11449,01.242,551
2023-03-30T16:18:28,42.805,6.029,CST-1368DR,4337,4678,11456,01.239,551
2023-03-30T16:21:30,42.805,6.029,CST-1368DR,4337,4677,11454,01.240,551
2023-03-30T16:24:31,42.805,6.029,CST-1368DR,4337,4681,11462,01.237,551
2023-03-30T16:27:33,42.805,6.029,CST-1368DR,4337,4679,11457,01.239,551
2023-03-30T16:30:34,42.805,6.029,CST-1368DR,4337,4678,11455,01.239,551
2023-03-30T16:33:36,42.805,6.029,CST-1368DR,4337,4676,11450,01.241,551
2023-03-30T16:36:38,42.805,6.029,CST-1368DR,4337,4680,11459,01.238,551